Вернуться в каталог

COSMOS 2251 DEB

АктивенLEO
NORAD 34459·DEBRIS·🇷🇺 Russia

Запущен Jun 16, 1993 с Plesetsk Cosmodrome

Loading…

Ближайшие Пролёты (ближайшие 24 часа)

TLE

СвежийSource: Space-Track

Эпоха: Sep 14, 2026, 02:34 UTC

1 34459U 93036TC  26257.10759799  .00000359  00000-0  21792-3 0  9996
2 34459  74.0786 137.9491 0190828 142.0661 219.4097 14.00834882895676

Отслеживайте COSMOS 2251 DEB в реальном времени с AllMySat

Download on the App Store